Time,TemperatureF,DewpointF,PressureIn,WindDirection,WindDirectionDegrees,WindSpeedMPH,WindSpeedGustMPH,Humidity,HourlyPrecipIn,Conditions,Clouds,dailyrainin,SoftwareType,DateUTC
2013-07-20 00:01:00,69.1,66.3,29.86,SW,225,0.0,1.3,91,0.00,,,0.00,WUHU216HW,2013-07-20 04:01:00,
2013-07-20 00:02:00,69.1,66.3,29.86,SSE,158,0.0,1.3,91,0.00,,,0.00,WUHU216HW,2013-07-20 04:02:00,
2013-07-20 00:07:00,69.1,66.3,29.86,SSE,158,0.4,1.1,91,0.00,,,0.00,WUHU216HW,2013-07-20 04:07:00,
2013-07-20 00:12:00,69.1,66.3,29.86,South,180,0.0,1.1,91,0.00,,,0.00,WUHU216HW,2013-07-20 04:12:00,
2013-07-20 00:17:00,69.1,66.3,29.86,South,180,0.0,1.1,91,0.00,,,0.00,WUHU216HW,2013-07-20 04:17:00,
2013-07-20 00:22:00,69.1,66.3,29.85,South,180,0.0,0.2,91,0.00,,,0.00,WUHU216HW,2013-07-20 04:22:00,
2013-07-20 00:27:00,69.1,66.3,29.86,South,180,0.0,0.0,91,0.00,,,0.00,WUHU216HW,2013-07-20 04:27:00,
2013-07-20 00:32:00,69.1,66.3,29.85,South,180,0.4,0.9,91,0.00,,,0.00,WUHU216HW,2013-07-20 04:32:00,
2013-07-20 00:37:00,69.1,66.3,29.85,SSE,158,0.4,0.9,91,0.00,,,0.00,WUHU216HW,2013-07-20 04:37:00,
2013-07-20 00:42:00,69.1,66.3,29.85,SSW,203,0.9,1.6,91,0.00,,,0.00,WUHU216HW,2013-07-20 04:42:00,
2013-07-20 00:47:00,68.9,66.2,29.85,SE,135,0.7,1.8,91,0.00,,,0.00,WUHU216HW,2013-07-20 04:47:00,
2013-07-20 00:52:00,68.9,66.2,29.85,South,180,0.0,1.8,91,0.00,,,0.00,WUHU216HW,2013-07-20 04:52:00,
2013-07-20 00:57:00,68.9,66.2,29.85,SSW,203,1.1,1.1,91,0.00,,,0.00,WUHU216HW,2013-07-20 04:57:00,
2013-07-20 01:02:00,68.9,66.2,29.85,ESE,113,1.3,1.3,91,0.00,,,0.00,WUHU216HW,2013-07-20 05:02:00,
2013-07-20 01:07:00,68.9,66.2,29.85,South,180,0.0,1.3,91,0.00,,,0.00,WUHU216HW,2013-07-20 05:07:00,
2013-07-20 01:12:00,68.9,66.2,29.86,South,180,0.0,1.1,91,0.00,,,0.00,WUHU216HW,2013-07-20 05:12:00,
2013-07-20 01:17:00,68.9,66.2,29.86,SSW,203,0.7,0.7,91,0.00,,,0.00,WUHU216HW,2013-07-20 05:17:00,
2013-07-20 01:22:00,68.9,66.2,29.86,SSE,158,0.0,1.1,91,0.00,,,0.00,WUHU216HW,2013-07-20 05:22:00,
2013-07-20 01:27:00,68.8,66.0,29.86,SSE,158,0.0,1.1,91,0.00,,,0.00,WUHU216HW,2013-07-20 05:27:00,
2013-07-20 01:32:00,68.8,66.0,29.87,WSW,248,0.0,0.0,91,0.00,,,0.00,WUHU216HW,2013-07-20 05:32:00,
2013-07-20 01:37:00,68.8,66.0,29.87,WSW,248,0.0,0.0,91,0.00,,,0.00,WUHU216HW,2013-07-20 05:37:00,
2013-07-20 01:42:00,68.8,66.0,29.87,NNW,338,0.0,0.0,91,0.00,,,0.00,WUHU216HW,2013-07-20 05:42:00,
2013-07-20 01:47:00,68.6,65.8,29.87,NNW,338,0.0,0.0,91,0.00,,,0.00,WUHU216HW,2013-07-20 05:47:00,
2013-07-20 01:52:00,68.6,65.8,29.87,NNW,338,0.0,0.0,91,0.00,,,0.00,WUHU216HW,2013-07-20 05:52:00,
2013-07-20 01:57:00,68.6,65.8,29.87,NNW,338,0.7,1.1,91,0.00,,,0.00,WUHU216HW,2013-07-20 05:57:00,
2013-07-20 02:02:00,68.4,65.6,29.87,NNW,338,0.0,1.1,91,0.00,,,0.00,WUHU216HW,2013-07-20 06:02:00,
2013-07-20 02:07:00,68.4,65.6,29.87,NNW,338,0.0,1.1,91,0.00,,,0.00,WUHU216HW,2013-07-20 06:07:00,
2013-07-20 02:12:00,68.4,65.6,29.88,NNW,338,0.0,0.0,91,0.00,,,0.00,WUHU216HW,2013-07-20 06:12:00,
2013-07-20 02:17:00,68.4,65.6,29.88,NNW,338,0.0,0.0,91,0.00,,,0.00,WUHU216HW,2013-07-20 06:17:00,
2013-07-20 02:22:00,68.2,65.4,29.87,NNW,338,0.0,0.0,91,0.00,,,0.00,WUHU216HW,2013-07-20 06:22:00,
2013-07-20 02:27:00,68.2,65.4,29.87,West,270,0.0,0.0,91,0.00,,,0.00,WUHU216HW,2013-07-20 06:27:00,
2013-07-20 02:32:00,68.2,65.4,29.87,West,270,0.0,0.0,91,0.00,,,0.00,WUHU216HW,2013-07-20 06:32:00,
2013-07-20 02:37:00,68.0,65.3,29.87,West,270,0.0,0.0,91,0.00,,,0.00,WUHU216HW,2013-07-20 06:37:00,
2013-07-20 02:42:00,68.0,65.3,29.88,West,270,0.0,0.7,91,0.00,,,0.00,WUHU216HW,2013-07-20 06:42:00,
2013-07-20 02:47:00,68.0,65.3,29.87,West,270,0.0,0.7,91,0.00,,,0.00,WUHU216HW,2013-07-20 06:47:00,
2013-07-20 02:52:00,68.0,65.3,29.87,West,270,0.0,0.0,91,0.00,,,0.00,WUHU216HW,2013-07-20 06:52:00,
2013-07-20 02:57:00,67.9,65.1,29.87,West,270,0.0,0.0,91,0.00,,,0.00,WUHU216HW,2013-07-20 06:57:00,
2013-07-20 03:02:00,67.9,65.1,29.87,West,270,0.0,0.0,91,0.00,,,0.00,WUHU216HW,2013-07-20 07:02:00,
2013-07-20 03:07:00,67.7,64.9,29.87,West,270,0.0,0.0,91,0.00,,,0.00,WUHU216HW,2013-07-20 07:07:00,
2013-07-20 03:12:00,67.7,64.9,29.87,West,270,0.0,0.0,91,0.00,,,0.00,WUHU216HW,2013-07-20 07:12:00,
2013-07-20 03:17:00,67.7,65.3,29.87,West,270,0.0,0.0,92,0.00,,,0.00,WUHU216HW,2013-07-20 07:17:00,
2013-07-20 03:22:00,67.5,65.1,29.86,West,270,0.0,0.0,92,0.00,,,0.00,WUHU216HW,2013-07-20 07:22:00,
2013-07-20 03:27:00,67.5,65.1,29.86,West,270,0.0,0.0,92,0.00,,,0.00,WUHU216HW,2013-07-20 07:27:00,
2013-07-20 03:32:00,67.5,65.1,29.86,West,270,0.0,0.0,92,0.00,,,0.00,WUHU216HW,2013-07-20 07:32:00,
2013-07-20 03:37:00,67.3,64.9,29.86,NW,315,0.9,0.9,92,0.00,,,0.00,WUHU216HW,2013-07-20 07:37:00,
2013-07-20 03:42:00,67.3,64.9,29.86,West,270,0.2,1.1,92,0.00,,,0.00,WUHU216HW,2013-07-20 07:42:00,
2013-07-20 03:47:00,67.3,64.9,29.85,SW,225,0.0,1.1,92,0.00,,,0.00,WUHU216HW,2013-07-20 07:47:00,
2013-07-20 03:52:00,67.3,64.9,29.85,SW,225,0.0,1.1,92,0.00,,,0.00,WUHU216HW,2013-07-20 07:52:00,
2013-07-20 03:57:00,67.3,64.9,29.85,WNW,293,0.0,1.1,92,0.00,,,0.00,WUHU216HW,2013-07-20 07:57:00,
2013-07-20 04:02:00,67.3,64.9,29.85,West,270,0.9,1.1,92,0.00,,,0.00,WUHU216HW,2013-07-20 08:02:00,
2013-07-20 04:07:00,67.1,64.7,29.85,SW,225,0.4,0.9,92,0.00,,,0.00,WUHU216HW,2013-07-20 08:07:00,
2013-07-20 04:12:00,67.1,64.7,29.85,WNW,293,0.4,0.9,92,0.00,,,0.00,WUHU216HW,2013-07-20 08:12:00,
2013-07-20 04:17:00,67.0,64.5,29.84,NW,315,0.4,0.9,92,0.00,,,0.00,WUHU216HW,2013-07-20 08:17:00,
2013-07-20 04:22:00,67.0,64.5,29.85,West,270,0.0,1.3,92,0.00,,,0.00,WUHU216HW,2013-07-20 08:22:00,
2013-07-20 04:27:00,66.8,64.4,29.84,NW,315,0.2,1.3,92,0.00,,,0.00,WUHU216HW,2013-07-20 08:27:00,
2013-07-20 04:32:00,66.6,64.2,29.84,NNW,338,0.0,1.1,92,0.00,,,0.00,WUHU216HW,2013-07-20 08:32:00,
2013-07-20 04:37:00,66.6,64.4,29.84,WNW,293,0.0,1.1,93,0.00,,,0.00,WUHU216HW,2013-07-20 08:37:00,
2013-07-20 04:42:00,66.4,64.3,29.84,WNW,293,0.4,1.1,93,0.00,,,0.00,WUHU216HW,2013-07-20 08:42:00,
2013-07-20 04:47:00,66.4,64.3,29.84,West,270,0.0,1.1,93,0.00,,,0.00,WUHU216HW,2013-07-20 08:47:00,
2013-07-20 04:52:00,66.2,64.1,29.84,WNW,293,0.0,0.9,93,0.00,,,0.00,WUHU216HW,2013-07-20 08:52:00,
2013-07-20 04:57:00,66.2,64.1,29.84,NW,315,0.0,1.1,93,0.00,,,0.00,WUHU216HW,2013-07-20 08:57:00,
2013-07-20 05:02:00,66.1,63.6,29.84,NW,315,0.0,1.1,92,0.00,,,0.00,WUHU216HW,2013-07-20 09:02:00,
2013-07-20 05:07:00,66.1,63.6,29.84,NNW,338,0.4,0.4,92,0.00,,,0.00,WUHU216HW,2013-07-20 09:07:00,
2013-07-20 05:12:00,66.1,63.6,29.84,NNW,338,0.0,0.4,92,0.00,,,0.00,WUHU216HW,2013-07-20 09:12:00,
2013-07-20 05:17:00,66.1,63.6,29.84,NNW,338,0.0,0.4,92,0.00,,,0.00,WUHU216HW,2013-07-20 09:17:00,
2013-07-20 05:22:00,65.9,63.5,29.84,NNW,338,0.0,0.0,92,0.00,,,0.00,WUHU216HW,2013-07-20 09:22:00,
2013-07-20 05:27:00,65.9,63.5,29.84,NNW,338,0.0,0.0,92,0.00,,,0.00,WUHU216HW,2013-07-20 09:27:00,
2013-07-20 05:32:00,65.9,63.5,29.84,NNW,338,0.0,0.0,92,0.00,,,0.00,WUHU216HW,2013-07-20 09:32:00,
2013-07-20 05:37:00,65.9,63.5,29.85,NNW,338,0.0,0.0,92,0.00,,,0.00,WUHU216HW,2013-07-20 09:37:00,
2013-07-20 05:42:00,65.9,63.5,29.85,West,270,0.0,0.0,92,0.00,,,0.00,WUHU216HW,2013-07-20 09:42:00,
2013-07-20 05:47:00,65.9,63.5,29.85,West,270,0.0,0.0,92,0.00,,,0.00,WUHU216HW,2013-07-20 09:47:00,
2013-07-20 05:52:00,66.1,63.6,29.85,South,180,0.0,0.7,92,0.00,,,0.00,WUHU216HW,2013-07-20 09:52:00,
2013-07-20 05:57:00,66.2,63.8,29.85,South,180,0.0,0.7,92,0.00,,,0.00,WUHU216HW,2013-07-20 09:57:00,
2013-07-20 06:02:00,66.2,64.1,29.85,South,180,0.0,0.4,93,0.00,,,0.00,WUHU216HW,2013-07-20 10:02:00,
2013-07-20 06:07:00,66.2,64.1,29.85,WNW,293,0.0,0.7,93,0.00,,,0.00,WUHU216HW,2013-07-20 10:07:00,
2013-07-20 06:12:00,66.2,64.5,29.86,NW,315,1.3,1.3,94,0.00,,,0.00,WUHU216HW,2013-07-20 10:12:00,
2013-07-20 06:17:00,66.2,64.5,29.85,North,0,0.7,1.3,94,0.00,,,0.00,WUHU216HW,2013-07-20 10:17:00,
2013-07-20 06:22:00,66.2,64.5,29.85,North,0,0.0,1.3,94,0.00,,,0.00,WUHU216HW,2013-07-20 10:22:00,
2013-07-20 06:27:00,66.4,64.6,29.85,SW,225,0.9,0.9,94,0.00,,,0.00,WUHU216HW,2013-07-20 10:27:00,
2013-07-20 06:32:00,66.4,64.6,29.86,NW,315,0.0,0.9,94,0.00,,,0.00,WUHU216HW,2013-07-20 10:32:00,
2013-07-20 06:37:00,66.4,64.6,29.86,SSW,203,0.0,0.4,94,0.00,,,0.00,WUHU216HW,2013-07-20 10:37:00,
2013-07-20 06:42:00,66.4,64.6,29.85,WSW,248,0.0,0.0,94,0.00,,,0.00,WUHU216HW,2013-07-20 10:42:00,
2013-07-20 06:47:00,66.4,64.6,29.86,WNW,293,0.0,0.9,94,0.00,,,0.00,WUHU216HW,2013-07-20 10:47:00,
2013-07-20 06:52:00,66.6,64.8,29.85,SSE,158,0.0,0.9,94,0.00,,,0.00,WUHU216HW,2013-07-20 10:52:00,
2013-07-20 06:57:00,66.6,64.8,29.86,North,0,0.0,0.9,94,0.00,,,0.00,WUHU216HW,2013-07-20 10:57:00,
2013-07-20 07:02:00,66.6,64.8,29.85,North,0,0.0,1.1,94,0.00,,,0.00,WUHU216HW,2013-07-20 11:02:00,
2013-07-20 07:07:00,66.6,64.8,29.86,North,0,0.0,1.1,94,0.00,,,0.00,WUHU216HW,2013-07-20 11:07:00,
2013-07-20 07:12:00,66.8,65.0,29.86,NW,315,1.1,1.6,94,0.00,,,0.00,WUHU216HW,2013-07-20 11:12:00,
2013-07-20 07:17:00,66.8,65.0,29.86,WNW,293,0.0,1.6,94,0.00,,,0.00,WUHU216HW,2013-07-20 11:17:00,
2013-07-20 07:22:00,66.6,64.8,29.86,North,0,0.0,1.1,94,0.00,,,0.00,WUHU216HW,2013-07-20 11:22:00,
2013-07-20 07:27:00,66.8,65.0,29.86,West,270,0.4,1.8,94,0.00,,,0.00,WUHU216HW,2013-07-20 11:27:00,
2013-07-20 07:32:00,67.0,65.2,29.86,West,270,0.0,1.8,94,0.00,,,0.00,WUHU216HW,2013-07-20 11:32:00,
2013-07-20 07:37:00,67.1,65.4,29.86,SSE,158,0.4,1.1,94,0.00,,,0.00,WUHU216HW,2013-07-20 11:37:00,
2013-07-20 07:42:00,67.1,65.4,29.86,SW,225,0.9,1.1,94,0.00,,,0.00,WUHU216HW,2013-07-20 11:42:00,
2013-07-20 07:47:00,67.3,65.5,29.86,SW,225,0.7,0.9,94,0.00,,,0.00,WUHU216HW,2013-07-20 11:47:00,
2013-07-20 07:52:00,67.5,65.7,29.86,North,0,0.0,1.8,94,0.00,,,0.00,WUHU216HW,2013-07-20 11:52:00,
2013-07-20 07:57:00,67.7,65.9,29.86,NNE,23,0.7,1.8,94,0.00,,,0.00,WUHU216HW,2013-07-20 11:57:00,
2013-07-20 08:02:00,67.7,65.9,29.86,WSW,248,0.0,1.1,94,0.00,,,0.00,WUHU216HW,2013-07-20 12:02:00,
2013-07-20 08:07:00,67.9,66.1,29.86,NNW,338,1.6,2.9,94,0.00,,,0.00,WUHU216HW,2013-07-20 12:07:00,
2013-07-20 08:12:00,68.0,66.3,29.86,SW,225,0.4,2.9,94,0.00,,,0.00,WUHU216HW,2013-07-20 12:12:00,
2013-07-20 08:17:00,68.0,66.3,29.86,SSW,203,0.7,1.6,94,0.00,,,0.00,WUHU216HW,2013-07-20 12:17:00,
2013-07-20 08:22:00,68.4,66.6,29.87,SSE,158,0.0,1.3,94,0.00,,,0.00,WUHU216HW,2013-07-20 12:22:00,
2013-07-20 08:27:00,68.4,66.6,29.87,East,90,0.2,1.3,94,0.00,,,0.00,WUHU216HW,2013-07-20 12:27:00,
2013-07-20 08:32:00,68.4,66.6,29.87,SE,135,0.4,1.6,94,0.00,,,0.00,WUHU216HW,2013-07-20 12:32:00,
2013-07-20 08:37:00,68.6,66.8,29.86,NNE,23,0.4,1.6,94,0.00,,,0.00,WUHU216HW,2013-07-20 12:37:00,
2013-07-20 08:42:00,68.8,67.0,29.86,WSW,248,0.4,0.9,94,0.00,,,0.00,WUHU216HW,2013-07-20 12:42:00,
2013-07-20 08:47:00,68.8,67.0,29.87,WSW,248,1.1,1.6,94,0.00,,,0.00,WUHU216HW,2013-07-20 12:47:00,
2013-07-20 08:52:00,69.1,67.3,29.87,SW,225,0.0,1.6,94,0.00,,,0.00,WUHU216HW,2013-07-20 12:52:00,
2013-07-20 08:57:00,69.3,67.1,29.87,West,270,0.0,1.6,93,0.00,,,0.00,WUHU216HW,2013-07-20 12:57:00,
2013-07-20 09:02:00,69.5,67.7,29.87,SSW,203,0.0,1.1,94,0.00,,,0.00,WUHU216HW,2013-07-20 13:02:00,
2013-07-20 09:07:00,69.8,67.7,29.87,NNE,23,0.4,1.3,93,0.00,,,0.00,WUHU216HW,2013-07-20 13:07:00,
2013-07-20 09:12:00,69.8,67.7,29.87,SSW,203,1.1,1.8,93,0.00,,,0.00,WUHU216HW,2013-07-20 13:12:00,
2013-07-20 09:17:00,70.0,67.9,29.87,ENE,68,0.4,1.8,93,0.00,,,0.00,WUHU216HW,2013-07-20 13:17:00,
2013-07-20 09:22:00,70.2,68.0,29.87,NNE,23,0.2,1.1,93,0.00,,,0.00,WUHU216HW,2013-07-20 13:22:00,
2013-07-20 09:27:00,70.4,68.2,29.87,North,0,0.4,1.1,93,0.00,,,0.00,WUHU216HW,2013-07-20 13:27:00,
2013-07-20 09:32:00,70.4,68.2,29.87,North,0,0.0,1.1,93,0.00,,,0.00,WUHU216HW,2013-07-20 13:32:00,
2013-07-20 09:37:00,70.6,68.4,29.86,North,0,0.0,0.7,93,0.00,,,0.00,WUHU216HW,2013-07-20 13:37:00,
2013-07-20 09:42:00,70.7,68.6,29.87,North,0,0.0,0.7,93,0.00,,,0.00,WUHU216HW,2013-07-20 13:42:00,
2013-07-20 09:47:00,70.9,68.8,29.87,North,0,0.0,0.2,93,0.00,,,0.00,WUHU216HW,2013-07-20 13:47:00,
2013-07-20 09:52:00,71.1,68.9,29.87,South,180,0.0,0.9,93,0.00,,,0.00,WUHU216HW,2013-07-20 13:52:00,
2013-07-20 09:57:00,71.3,68.9,29.86,ESE,113,0.0,0.9,92,0.00,,,0.00,WUHU216HW,2013-07-20 13:57:00,
2013-07-20 10:02:00,71.6,69.2,29.87,South,180,0.4,1.1,92,0.00,,,0.00,WUHU216HW,2013-07-20 14:02:00,
2013-07-20 10:07:00,72.0,69.6,29.86,ENE,68,0.0,1.3,92,0.00,,,0.00,WUHU216HW,2013-07-20 14:07:00,
2013-07-20 10:12:00,72.5,70.1,29.86,East,90,0.7,1.3,92,0.00,,,0.00,WUHU216HW,2013-07-20 14:12:00,
2013-07-20 10:17:00,72.9,70.5,29.86,SSE,158,1.3,1.3,92,0.00,,,0.00,WUHU216HW,2013-07-20 14:17:00,
2013-07-20 10:22:00,73.1,70.3,29.86,SE,135,0.0,1.3,91,0.00,,,0.00,WUHU216HW,2013-07-20 14:22:00,
2013-07-20 10:27:00,73.4,71.0,29.86,NE,45,0.0,0.9,92,0.00,,,0.00,WUHU216HW,2013-07-20 14:27:00,
2013-07-20 10:32:00,73.6,71.2,29.86,NNE,23,0.0,0.9,92,0.00,,,0.00,WUHU216HW,2013-07-20 14:32:00,
2013-07-20 10:37:00,74.0,71.6,29.86,NNE,23,0.0,0.7,92,0.00,,,0.00,WUHU216HW,2013-07-20 14:37:00,
2013-07-20 10:42:00,74.3,71.6,29.86,SSE,158,0.0,1.6,91,0.00,,,0.00,WUHU216HW,2013-07-20 14:42:00,
2013-07-20 10:47:00,74.7,71.9,29.86,NE,45,0.0,1.6,91,0.00,,,0.00,WUHU216HW,2013-07-20 14:47:00,
2013-07-20 10:52:00,75.1,72.0,29.86,SSW,203,1.1,1.8,90,0.00,,,0.00,WUHU216HW,2013-07-20 14:52:00,
2013-07-20 10:57:00,75.4,72.4,29.86,WSW,248,0.4,1.8,90,0.00,,,0.00,WUHU216HW,2013-07-20 14:57:00,
2013-07-20 11:02:00,75.4,71.6,29.86,SSE,158,1.1,1.6,88,0.00,,,0.00,WUHU216HW,2013-07-20 15:02:00,
2013-07-20 11:07:00,75.6,72.2,29.86,North,0,0.4,1.6,89,0.00,,,0.00,WUHU216HW,2013-07-20 15:07:00,
2013-07-20 11:12:00,75.2,71.5,29.87,NW,315,3.4,3.4,88,0.00,,,0.00,WUHU216HW,2013-07-20 15:12:00,
2013-07-20 11:17:00,75.2,70.1,29.86,NNW,338,4.7,4.7,84,0.00,,,0.00,WUHU216HW,2013-07-20 15:17:00,
2013-07-20 11:22:00,75.4,69.9,29.86,NNW,338,2.5,4.7,83,0.00,,,0.00,WUHU216HW,2013-07-20 15:22:00,
2013-07-20 11:27:00,76.1,69.9,29.86,WSW,248,1.1,4.7,81,0.00,,,0.00,WUHU216HW,2013-07-20 15:27:00,
2013-07-20 11:32:00,76.7,70.0,29.86,NNE,23,0.9,3.4,80,0.00,,,0.00,WUHU216HW,2013-07-20 15:32:00,
2013-07-20 11:37:00,76.9,70.6,29.86,WNW,293,2.0,3.4,81,0.00,,,0.00,WUHU216HW,2013-07-20 15:37:00,
2013-07-20 11:42:00,77.2,68.3,29.86,NNW,338,5.6,5.6,74,0.00,,,0.00,WUHU216HW,2013-07-20 15:42:00,
2013-07-20 11:47:00,77.8,69.6,29.86,NNW,338,1.8,5.6,76,0.00,,,0.00,WUHU216HW,2013-07-20 15:47:00,
2013-07-20 11:52:00,78.5,68.7,29.86,West,270,1.8,8.1,72,0.00,,,0.00,WUHU216HW,2013-07-20 15:52:00,
2013-07-20 11:57:00,79.2,70.6,29.85,SW,225,1.8,8.1,75,0.00,,,0.00,WUHU216HW,2013-07-20 15:57:00,
2013-07-20 12:02:00,79.7,69.5,29.85,WNW,293,1.8,5.1,71,0.00,,,0.00,WUHU216HW,2013-07-20 16:02:00,
2013-07-20 12:07:00,79.9,69.7,29.85,NNW,338,1.3,5.1,71,0.00,,,0.00,WUHU216HW,2013-07-20 16:07:00,
2013-07-20 12:12:00,80.1,70.7,29.85,South,180,1.8,2.5,73,0.00,,,0.00,WUHU216HW,2013-07-20 16:12:00,
2013-07-20 12:17:00,80.3,70.8,29.85,West,270,2.2,2.7,73,0.00,,,0.00,WUHU216HW,2013-07-20 16:17:00,
2013-07-20 12:22:00,80.6,71.2,29.85,West,270,0.9,2.7,73,0.00,,,0.00,WUHU216HW,2013-07-20 16:22:00,
2013-07-20 12:27:00,81.2,71.3,29.85,WSW,248,1.8,3.4,72,0.00,,,0.00,WUHU216HW,2013-07-20 16:27:00,
2013-07-20 12:32:00,81.7,71.8,29.85,WNW,293,1.6,3.4,72,0.00,,,0.00,WUHU216HW,2013-07-20 16:32:00,
2013-07-20 12:37:00,81.5,72.0,29.84,South,180,0.4,3.4,73,0.00,,,0.00,WUHU216HW,2013-07-20 16:37:00,
2013-07-20 12:42:00,81.4,71.5,29.84,WNW,293,1.1,1.8,72,0.00,,,0.00,WUHU216HW,2013-07-20 16:42:00,
2013-07-20 12:47:00,81.4,71.5,29.84,WSW,248,1.6,2.5,72,0.00,,,0.00,WUHU216HW,2013-07-20 16:47:00,
2013-07-20 12:52:00,81.2,69.1,29.84,NNW,338,2.5,2.5,67,0.00,,,0.00,WUHU216HW,2013-07-20 16:52:00,
2013-07-20 12:57:00,81.4,68.4,29.84,NNW,338,6.3,6.3,65,0.00,,,0.00,WUHU216HW,2013-07-20 16:57:00,
2013-07-20 13:02:00,81.2,67.3,29.84,NW,315,2.0,6.3,63,0.00,,,0.00,WUHU216HW,2013-07-20 17:02:00,
2013-07-20 13:07:00,80.8,68.9,29.84,NNW,338,1.8,6.3,67,0.00,,,0.00,WUHU216HW,2013-07-20 17:07:00,
2013-07-20 13:12:00,80.6,67.3,29.84,North,0,1.6,3.8,64,0.00,,,0.00,WUHU216HW,2013-07-20 17:12:00,
2013-07-20 13:17:00,80.6,69.1,29.84,SW,225,1.1,2.7,68,0.00,,,0.00,WUHU216HW,2013-07-20 17:17:00,
2013-07-20 13:22:00,80.6,68.7,29.84,ENE,68,1.6,2.7,67,0.00,,,0.00,WUHU216HW,2013-07-20 17:22:00,
2013-07-20 13:27:00,80.6,69.6,29.84,SSW,203,1.8,2.7,69,0.00,,,0.00,WUHU216HW,2013-07-20 17:27:00,
2013-07-20 13:32:00,81.2,70.0,29.83,SSE,158,1.1,2.2,69,0.00,,,0.00,WUHU216HW,2013-07-20 17:32:00,
2013-07-20 13:37:00,81.9,70.8,29.83,WSW,248,1.3,2.7,69,0.00,,,0.00,WUHU216HW,2013-07-20 17:37:00,
2013-07-20 13:42:00,83.0,71.3,29.83,SW,225,1.1,2.7,68,0.00,,,0.00,WUHU216HW,2013-07-20 17:42:00,
2013-07-20 13:47:00,83.5,70.9,29.83,East,90,0.4,2.7,66,0.00,,,0.00,WUHU216HW,2013-07-20 17:47:00,
2013-07-20 13:52:00,83.3,71.6,29.83,WSW,248,2.0,2.7,68,0.00,,,0.00,WUHU216HW,2013-07-20 17:52:00,
2013-07-20 13:57:00,83.2,71.0,29.83,South,180,0.4,2.5,67,0.00,,,0.00,WUHU216HW,2013-07-20 17:57:00,
2013-07-20 14:02:00,82.6,70.9,29.83,SSE,158,0.4,2.5,68,0.00,,,0.00,WUHU216HW,2013-07-20 18:02:00,
2013-07-20 14:07:00,83.0,70.8,29.83,WSW,248,1.8,2.2,67,0.00,,,0.00,WUHU216HW,2013-07-20 18:07:00,
2013-07-20 14:12:00,83.9,71.7,29.83,SSW,203,0.7,3.8,67,0.00,,,0.00,WUHU216HW,2013-07-20 18:12:00,
2013-07-20 14:17:00,84.2,71.2,29.83,South,180,1.1,3.8,65,0.00,,,0.00,WUHU216HW,2013-07-20 18:17:00,
2013-07-20 14:22:00,83.9,71.7,29.83,WSW,248,0.4,2.5,67,0.00,,,0.00,WUHU216HW,2013-07-20 18:22:00,
2013-07-20 14:27:00,83.9,71.3,29.82,SE,135,0.7,2.5,66,0.00,,,0.00,WUHU216HW,2013-07-20 18:27:00,
2013-07-20 14:32:00,84.1,71.0,29.82,NNW,338,0.4,2.7,65,0.00,,,0.00,WUHU216HW,2013-07-20 18:32:00,
2013-07-20 14:37:00,84.4,72.3,29.82,NNE,23,1.1,2.7,67,0.00,,,0.00,WUHU216HW,2013-07-20 18:37:00,
2013-07-20 14:42:00,84.6,72.5,29.82,SSW,203,1.1,2.0,67,0.00,,,0.00,WUHU216HW,2013-07-20 18:42:00,
2013-07-20 14:47:00,85.1,73.5,29.82,WSW,248,1.1,1.8,68,0.00,,,0.00,WUHU216HW,2013-07-20 18:47:00,
2013-07-20 14:52:00,85.9,73.2,29.81,SW,225,1.3,1.8,66,0.00,,,0.00,WUHU216HW,2013-07-20 18:52:00,
2013-07-20 14:57:00,85.9,73.6,29.81,WNW,293,0.4,2.9,67,0.00,,,0.00,WUHU216HW,2013-07-20 18:57:00,
2013-07-20 15:02:00,85.7,73.5,29.81,WNW,293,1.6,2.9,67,0.00,,,0.00,WUHU216HW,2013-07-20 19:02:00,
2013-07-20 15:08:00,85.7,74.0,29.81,West,270,0.7,2.2,68,0.00,,,0.00,WUHU216HW,2013-07-20 19:08:00,
2013-07-20 15:13:00,85.9,73.2,29.81,North,0,1.1,3.1,66,0.00,,,0.00,WUHU216HW,2013-07-20 19:13:00,
2013-07-20 15:18:00,85.7,73.5,29.81,SW,225,1.6,3.1,67,0.00,,,0.00,WUHU216HW,2013-07-20 19:18:00,
2013-07-20 15:23:00,85.7,72.5,29.81,SSE,158,0.4,2.5,65,0.00,,,0.00,WUHU216HW,2013-07-20 19:23:00,
2013-07-20 15:29:00,85.3,73.2,29.81,West,270,0.9,2.5,67,0.00,,,0.00,WUHU216HW,2013-07-20 19:29:00,
2013-07-20 15:34:00,84.6,72.5,29.80,SW,225,0.4,1.8,67,0.00,,,0.00,WUHU216HW,2013-07-20 19:34:00,
2013-07-20 15:40:00,85.0,72.8,29.80,NNW,338,1.1,2.0,67,0.00,,,0.00,WUHU216HW,2013-07-20 19:40:00,
2013-07-20 15:45:00,85.3,73.2,29.80,SW,225,1.1,3.1,67,0.00,,,0.00,WUHU216HW,2013-07-20 19:45:00,
2013-07-20 15:50:00,85.3,73.2,29.80,SW,225,0.7,3.4,67,0.00,,,0.00,WUHU216HW,2013-07-20 19:50:00,
2013-07-20 15:55:00,86.0,73.8,29.80,WSW,248,1.1,3.4,67,0.00,,,0.00,WUHU216HW,2013-07-20 19:55:00,
2013-07-20 16:00:00,86.4,71.8,29.80,South,180,0.4,2.5,62,0.00,,,0.00,WUHU216HW,2013-07-20 20:00:00,
2013-07-20 16:05:00,85.9,71.8,29.80,ESE,113,0.4,2.5,63,0.00,,,0.00,WUHU216HW,2013-07-20 20:05:00,
2013-07-20 16:10:00,85.3,72.7,29.79,WSW,248,1.1,2.0,66,0.00,,,0.00,WUHU216HW,2013-07-20 20:10:00,
2013-07-20 16:15:00,85.9,72.7,29.80,SW,225,1.1,2.5,65,0.00,,,0.00,WUHU216HW,2013-07-20 20:15:00,
2013-07-20 16:20:00,85.5,72.8,29.79,SSE,158,0.9,2.5,66,0.00,,,0.00,WUHU216HW,2013-07-20 20:20:00,
2013-07-20 16:25:00,85.1,73.0,29.80,SE,135,0.4,1.8,67,0.00,,,0.00,WUHU216HW,2013-07-20 20:25:00,
2013-07-20 16:30:00,84.1,72.4,29.80,South,180,0.7,1.6,68,0.00,,,0.00,WUHU216HW,2013-07-20 20:30:00,
2013-07-20 16:36:00,83.5,72.3,29.80,ESE,113,1.1,1.1,69,0.00,,,0.00,WUHU216HW,2013-07-20 20:36:00,
2013-07-20 16:41:00,83.7,72.0,29.80,SSW,203,1.6,2.0,68,0.00,,,0.00,WUHU216HW,2013-07-20 20:41:00,
2013-07-20 16:46:00,83.9,72.2,29.79,SW,225,0.9,2.0,68,0.00,,,0.00,WUHU216HW,2013-07-20 20:46:00,
2013-07-20 16:51:00,84.4,73.2,29.79,NNW,338,1.3,2.5,69,0.00,,,0.00,WUHU216HW,2013-07-20 20:51:00,
2013-07-20 16:56:00,84.6,72.9,29.79,NW,315,2.5,2.9,68,0.00,,,0.00,WUHU216HW,2013-07-20 20:56:00,
2013-07-20 17:01:00,84.2,72.5,29.79,WSW,248,1.8,2.9,68,0.00,,,0.00,WUHU216HW,2013-07-20 21:01:00,
2013-07-20 17:06:00,83.7,72.0,29.79,North,0,0.4,2.5,68,0.00,,,0.00,WUHU216HW,2013-07-20 21:06:00,
2013-07-20 17:11:00,83.3,72.5,29.79,SW,225,1.1,2.5,70,0.00,,,0.00,WUHU216HW,2013-07-20 21:11:00,
2013-07-20 17:16:00,83.3,72.5,29.79,South,180,0.2,2.2,70,0.00,,,0.00,WUHU216HW,2013-07-20 21:16:00,
2013-07-20 17:22:00,83.7,72.9,29.78,West,270,1.1,1.3,70,0.00,,,0.00,WUHU216HW,2013-07-20 21:22:00,
2013-07-20 17:27:00,84.1,72.8,29.78,SSW,203,0.4,1.8,69,0.00,,,0.00,WUHU216HW,2013-07-20 21:27:00,
2013-07-20 17:32:00,83.7,72.5,29.78,SSW,203,0.0,1.8,69,0.00,,,0.00,WUHU216HW,2013-07-20 21:32:00,
2013-07-20 17:38:00,83.9,73.1,29.79,WNW,293,0.0,1.3,70,0.00,,,0.00,WUHU216HW,2013-07-20 21:38:00,
2013-07-20 17:43:00,83.5,72.7,29.79,ESE,113,0.0,1.3,70,0.00,,,0.00,WUHU216HW,2013-07-20 21:43:00,
2013-07-20 17:48:00,83.5,72.3,29.79,WSW,248,1.3,2.0,69,0.00,,,0.00,WUHU216HW,2013-07-20 21:48:00,
2013-07-20 17:53:00,83.7,68.4,29.79,North,0,2.9,3.6,60,0.00,,,0.00,WUHU216HW,2013-07-20 21:53:00,
2013-07-20 17:58:00,83.9,70.4,29.79,SW,225,0.7,3.6,64,0.00,,,0.00,WUHU216HW,2013-07-20 21:58:00,
2013-07-20 18:04:00,83.9,70.8,29.79,SSE,158,1.8,2.9,65,0.00,,,0.00,WUHU216HW,2013-07-20 22:04:00,
2013-07-20 18:09:00,83.2,71.0,29.79,NNW,338,1.3,1.8,67,0.00,,,0.00,WUHU216HW,2013-07-20 22:09:00,
2013-07-20 18:14:00,82.6,70.0,29.79,NNW,338,1.8,1.8,66,0.00,,,0.00,WUHU216HW,2013-07-20 22:14:00,
2013-07-20 18:19:00,82.1,68.6,29.79,NW,315,2.7,3.6,64,0.00,,,0.00,WUHU216HW,2013-07-20 22:19:00,
2013-07-20 18:24:00,81.7,68.8,29.79,WNW,293,1.8,3.6,65,0.00,,,0.00,WUHU216HW,2013-07-20 22:24:00,
2013-07-20 18:29:00,81.5,69.0,29.79,West,270,2.5,4.0,66,0.00,,,0.00,WUHU216HW,2013-07-20 22:29:00,
2013-07-20 18:36:00,81.5,69.0,29.80,NNW,338,3.6,6.7,66,0.00,,,0.00,WUHU216HW,2013-07-20 22:36:00,
2013-07-20 18:41:00,81.4,68.9,29.80,NNW,338,2.7,6.7,66,0.00,,,0.00,WUHU216HW,2013-07-20 22:41:00,
2013-07-20 18:46:00,81.0,69.0,29.81,NW,315,2.7,4.0,67,0.00,,,0.00,WUHU216HW,2013-07-20 22:46:00,
2013-07-20 18:51:00,80.3,68.3,29.81,NW,315,3.4,3.6,67,0.00,,,0.00,WUHU216HW,2013-07-20 22:51:00,
2013-07-20 18:56:00,78.8,67.3,29.81,West,270,6.0,7.2,68,0.00,,,0.00,WUHU216HW,2013-07-20 22:56:00,
2013-07-20 19:01:00,78.1,67.6,29.81,WNW,293,4.3,7.2,70,0.00,,,0.00,WUHU216HW,2013-07-20 23:01:00,
2013-07-20 19:06:00,77.8,67.2,29.82,NNW,338,2.7,5.6,70,0.00,,,0.00,WUHU216HW,2013-07-20 23:06:00,
2013-07-20 19:11:00,77.4,67.3,29.82,WSW,248,1.8,4.3,71,0.00,,,0.00,WUHU216HW,2013-07-20 23:11:00,
2013-07-20 19:16:00,77.4,67.3,29.82,NW,315,1.6,4.3,71,0.00,,,0.00,WUHU216HW,2013-07-20 23:16:00,
2013-07-20 19:21:00,77.2,67.1,29.82,North,0,0.7,4.0,71,0.00,,,0.00,WUHU216HW,2013-07-20 23:21:00,
2013-07-20 19:27:00,76.9,67.1,29.82,NNW,338,1.1,3.1,72,0.00,,,0.00,WUHU216HW,2013-07-20 23:27:00,
2013-07-20 19:32:00,76.5,67.2,29.82,NNW,338,0.7,2.0,73,0.00,,,0.00,WUHU216HW,2013-07-20 23:32:00,
2013-07-20 19:37:00,76.3,67.1,29.82,NNW,338,0.0,2.0,73,0.00,,,0.00,WUHU216HW,2013-07-20 23:37:00,
2013-07-20 19:42:00,75.8,66.9,29.82,ENE,68,0.0,1.8,74,0.00,,,0.00,WUHU216HW,2013-07-20 23:42:00,
2013-07-20 19:47:00,75.2,66.8,29.82,ENE,68,0.0,0.0,75,0.00,,,0.00,WUHU216HW,2013-07-20 23:47:00,
2013-07-20 19:52:00,74.9,66.9,29.82,SE,135,0.0,0.9,76,0.00,,,0.00,WUHU216HW,2013-07-20 23:52:00,
2013-07-20 19:57:00,74.7,66.7,29.82,WSW,248,0.0,0.9,76,0.00,,,0.00,WUHU216HW,2013-07-20 23:57:00,
2013-07-20 20:02:00,74.3,66.7,29.83,SW,225,0.0,0.0,77,0.00,,,0.00,WUHU216HW,2013-07-21 00:02:00,
2013-07-20 20:07:00,74.2,66.5,29.82,SE,135,0.0,0.0,77,0.00,,,0.00,WUHU216HW,2013-07-21 00:07:00,
2013-07-20 20:12:00,74.0,66.3,29.82,SE,135,0.0,1.1,77,0.00,,,0.00,WUHU216HW,2013-07-21 00:12:00,
2013-07-20 20:17:00,74.0,66.7,29.83,WSW,248,0.0,1.1,78,0.00,,,0.00,WUHU216HW,2013-07-21 00:17:00,
2013-07-20 20:22:00,73.4,66.3,29.83,SW,225,0.0,0.4,78,0.00,,,0.00,WUHU216HW,2013-07-21 00:22:00,
2013-07-20 20:27:00,73.3,66.4,29.83,NNW,338,0.0,0.0,79,0.00,,,0.00,WUHU216HW,2013-07-21 00:27:00,
2013-07-20 20:32:00,73.3,66.4,29.83,NNW,338,0.2,0.4,79,0.00,,,0.00,WUHU216HW,2013-07-21 00:32:00,
2013-07-20 20:38:00,73.3,66.4,29.83,NW,315,0.0,0.4,79,0.00,,,0.00,WUHU216HW,2013-07-21 00:38:00,
2013-07-20 20:43:00,73.3,66.4,29.83,WNW,293,0.0,0.4,79,0.00,,,0.00,WUHU216HW,2013-07-21 00:43:00,
2013-07-20 20:48:00,73.3,66.4,29.83,WNW,293,0.0,0.0,79,0.00,,,0.00,WUHU216HW,2013-07-21 00:48:00,
2013-07-20 20:53:00,73.1,66.6,29.83,NW,315,0.4,1.6,80,0.00,,,0.00,WUHU216HW,2013-07-21 00:53:00,
2013-07-20 20:58:00,72.7,66.2,29.82,NW,315,0.0,1.6,80,0.00,,,0.00,WUHU216HW,2013-07-21 00:58:00,
2013-07-20 21:03:00,72.5,66.1,29.82,West,270,0.7,0.9,80,0.00,,,0.00,WUHU216HW,2013-07-21 01:03:00,
2013-07-20 21:09:00,72.5,66.4,29.82,West,270,0.0,0.9,81,0.00,,,0.00,WUHU216HW,2013-07-21 01:09:00,
2013-07-20 21:14:00,72.4,65.9,29.83,WNW,293,0.2,0.9,80,0.00,,,0.00,WUHU216HW,2013-07-21 01:14:00,
2013-07-20 21:19:00,72.2,66.1,29.83,WNW,293,0.0,0.9,81,0.00,,,0.00,WUHU216HW,2013-07-21 01:19:00,
2013-07-20 21:24:00,71.8,65.7,29.84,WNW,293,0.0,0.4,81,0.00,,,0.00,WUHU216HW,2013-07-21 01:24:00,
2013-07-20 21:29:00,71.6,65.5,29.84,WNW,293,0.0,0.0,81,0.00,,,0.00,WUHU216HW,2013-07-21 01:29:00,
2013-07-20 21:34:00,71.6,65.5,29.85,WNW,293,0.0,0.0,81,0.00,,,0.00,WUHU216HW,2013-07-21 01:34:00,
2013-07-20 21:40:00,71.6,65.9,29.84,WNW,293,0.0,0.0,82,0.00,,,0.00,WUHU216HW,2013-07-21 01:40:00,
2013-07-20 21:45:00,71.5,65.7,29.84,WNW,293,0.0,0.0,82,0.00,,,0.00,WUHU216HW,2013-07-21 01:45:00,
2013-07-20 21:50:00,71.3,65.5,29.84,SE,135,0.0,0.9,82,0.00,,,0.00,WUHU216HW,2013-07-21 01:50:00,
2013-07-20 21:55:00,71.1,65.4,29.84,SE,135,0.0,0.9,82,0.00,,,0.00,WUHU216HW,2013-07-21 01:55:00,
2013-07-20 22:00:00,70.9,65.4,29.84,ESE,113,0.0,0.4,83,0.00,,,0.00,WUHU216HW,2013-07-21 02:00:00,
2013-07-20 22:05:00,70.9,65.4,29.84,North,0,0.4,0.7,83,0.00,,,0.00,WUHU216HW,2013-07-21 02:05:00,
2013-07-20 22:11:00,70.9,65.4,29.83,North,0,0.0,0.7,83,0.00,,,0.00,WUHU216HW,2013-07-21 02:11:00,
2013-07-20 22:16:00,70.9,65.4,29.83,West,270,0.0,0.4,83,0.00,,,0.00,WUHU216HW,2013-07-21 02:16:00,
2013-07-20 22:21:00,70.6,65.4,29.83,NNW,338,0.0,0.0,84,0.00,,,0.00,WUHU216HW,2013-07-21 02:21:00,
2013-07-20 22:26:00,70.4,65.3,29.83,South,180,0.0,1.8,84,0.00,,,0.00,WUHU216HW,2013-07-21 02:26:00,
2013-07-20 22:32:00,70.2,65.1,29.83,WNW,293,0.4,1.8,84,0.00,,,0.00,WUHU216HW,2013-07-21 02:32:00,
2013-07-20 22:37:00,70.0,65.3,29.83,NNW,338,0.4,1.1,85,0.00,,,0.00,WUHU216HW,2013-07-21 02:37:00,
2013-07-20 22:42:00,69.8,64.7,29.83,North,0,0.4,1.1,84,0.00,,,0.00,WUHU216HW,2013-07-21 02:42:00,
2013-07-20 22:47:00,69.7,64.9,29.83,NNE,23,0.0,0.7,85,0.00,,,0.00,WUHU216HW,2013-07-21 02:47:00,
2013-07-20 22:52:00,69.5,64.7,29.83,NNE,23,0.0,0.7,85,0.00,,,0.00,WUHU216HW,2013-07-21 02:52:00,
2013-07-20 22:57:00,69.3,64.5,29.83,NNE,23,0.0,0.4,85,0.00,,,0.00,WUHU216HW,2013-07-21 02:57:00,
2013-07-20 23:02:00,69.3,64.9,29.83,SE,135,0.2,0.2,86,0.00,,,0.00,WUHU216HW,2013-07-21 03:02:00,
2013-07-20 23:08:00,69.1,64.7,29.83,ESE,113,0.0,0.7,86,0.00,,,0.00,WUHU216HW,2013-07-21 03:08:00,
2013-07-20 23:13:00,68.9,64.5,29.83,ESE,113,0.0,0.7,86,0.00,,,0.00,WUHU216HW,2013-07-21 03:13:00,
2013-07-20 23:18:00,68.9,64.5,29.83,ESE,113,0.0,0.0,86,0.00,,,0.00,WUHU216HW,2013-07-21 03:18:00,
2013-07-20 23:23:00,68.9,64.5,29.83,ESE,113,0.0,0.0,86,0.00,,,0.00,WUHU216HW,2013-07-21 03:23:00,
2013-07-20 23:28:00,68.8,64.4,29.84,NW,315,0.4,0.7,86,0.00,,,0.00,WUHU216HW,2013-07-21 03:28:00,
2013-07-20 23:33:00,68.8,64.4,29.84,NW,315,0.0,0.7,86,0.00,,,0.00,WUHU216HW,2013-07-21 03:33:00,
2013-07-20 23:38:00,68.6,64.5,29.84,NW,315,0.0,0.2,87,0.00,,,0.00,WUHU216HW,2013-07-21 03:38:00,
2013-07-20 23:43:00,68.4,64.4,29.84,NW,315,0.0,0.0,87,0.00,,,0.00,WUHU216HW,2013-07-21 03:43:00,
2013-07-20 23:49:00,68.4,64.4,29.84,NW,315,0.0,0.0,87,0.00,,,0.00,WUHU216HW,2013-07-21 03:49:00,
2013-07-20 23:54:00,68.4,64.7,29.83,NW,315,0.0,0.0,88,0.00,,,0.00,WUHU216HW,2013-07-21 03:54:00,
2013-07-20 23:59:00,68.4,64.7,29.84,West,270,0.0,0.0,88,0.00,,,0.00,WUHU216HW,2013-07-21 03:59:00,